Flag for United Kingdom Weather past 2 weeks in Bury, England, United Kingdom

Now
43 °F

Passing clouds.


Feels Like: 38 °F
Forecast: 33 / 44 °F
Wind: 8 mph from West

Location: Manchester Airport

Current Time: Dec 25, 2014 at 6:36:39 AM

Latest Report: Dec 25, 2014 at 5:50 AM


Visibility: N/A

Pressure: 30.24 "Hg

Humidity: 81%

Dew point: 37 °F

Location of BuryLocation

Historic Weather in Bury — Graph

°F

Bury temperature yesterday

Maximum temperature yesterday: 46 °F (at 1:20 AM)
Minimum temperature yesterday: 41 °F (at 7:20 AM)
Average temperature yesterday: 43 °F

Past Weeks' High & Low Weather Summary

 TemperatureHumidityPressure
High55 °F (Dec 18, 3:20 PM)100% (Dec 11, 5:20 AM)30.36 "Hg (Dec 11, 5:20 AM)
Low28 °F (Dec 13, 3:20 AM)66% (Dec 10, 11:20 AM)29.15 "Hg (Dec 12, 3:50 AM)
Average44 °F88%29.81 "Hg
* Reported Dec 10 5:20 AM — Dec 25 5:20 AM, Bury, Weather by CustomWeather, © 2014

Note: Actual official high and low records may vary slightly from our data, if they occured in-between our weather recording intervals... More about our weather records

Advertising

Bury weather history for previous 24 hours

 ConditionsComfort  
Time TempWeatherWind HumidityBarometerVisibility
5:20 AM
Dec 25
43 °FPassing clouds.7 mph81%30.24 "HgN/A
4:50 AM43 °FPassing clouds.7 mph81%30.24 "HgN/A
4:20 AM43 °FPassing clouds.6 mph81%30.21 "HgN/A
3:20 AM41 °FPassing clouds.8 mph87%30.21 "HgN/A
2:50 AM43 °FPassing clouds.7 mph81%30.21 "HgN/A
2:20 AM43 °FPartly cloudy.9 mph81%30.18 "HgN/A
1:50 AM43 °FPassing clouds.9 mph81%30.18 "HgN/A
1:20 AM43 °FPassing clouds.8 mph81%30.18 "HgN/A
12:50 AM43 °FPassing clouds.8 mph81%30.18 "HgN/A
12:20 AM43 °FPassing clouds.13 mph81%30.15 "HgN/A
11:50 PM
Dec 24
43 °FPassing clouds.12 mph81%30.15 "HgN/A
11:20 PM43 °FPassing clouds.10 mph81%30.15 "HgN/A
10:50 PM43 °FPassing clouds.8 mph81%30.12 "HgN/A
10:20 PM41 °FPassing clouds.5 mph87%30.12 "HgN/A
9:50 PM41 °FPassing clouds.3 mph87%30.12 "HgN/A
9:20 PM41 °FPassing clouds.8 mph87%30.12 "HgN/A
8:50 PM43 °FPassing clouds.14 mph81%30.09 "HgN/A
8:20 PM43 °FPassing clouds.15 mph81%30.09 "HgN/A
7:50 PM41 °FSprinkles. Passing clouds.13 mph87%30.09 "HgN/A
7:20 PM43 °FPassing clouds.15 mph81%30.07 "HgN/A
6:50 PM43 °FPassing clouds.14 mph81%30.07 "HgN/A
6:20 PM43 °FPassing clouds.14 mph81%30.07 "HgN/A
5:50 PM43 °FPassing clouds.13 mph81%30.07 "HgN/A
5:20 PM43 °FPassing clouds.9 mph76%30.07 "HgN/A
4:50 PM45 °FPassing clouds.9 mph71%30.04 "HgN/A
4:20 PM45 °FPassing clouds.14 mph71%30.04 "HgN/A
3:50 PM45 °FScattered clouds.18 mph66%30.04 "HgN/A
3:20 PM45 °FScattered clouds.17 mph66%30.01 "HgN/A
2:20 PM45 °FSprinkles. Partly sunny.18 mph71%30.01 "HgN/A
1:50 PM45 °FBroken clouds.20 mph71%29.98 "HgN/A
1:20 PM45 °FScattered clouds.20 mph71%29.98 "HgN/A
12:50 PM45 °FScattered clouds.15 mph66%29.98 "HgN/A
12:20 PM45 °FPartly sunny.13 mph66%29.98 "HgN/A
11:20 AM45 °FScattered clouds.13 mph71%29.98 "HgN/A
10:50 AM43 °FPassing clouds.16 mph76%29.98 "HgN/A
10:20 AM41 °FPassing clouds.14 mph81%29.95 "HgN/A
9:50 AM41 °FScattered clouds.14 mph81%29.95 "HgN/A
9:20 AM41 °FPassing clouds.9 mph76%29.95 "HgN/A
8:50 AM41 °FPassing clouds.12 mph76%29.95 "HgN/A
8:20 AM41 °FPassing clouds.12 mph81%29.92 "HgN/A
7:50 AM43 °FPassing clouds.13 mph76%29.92 "HgN/A
7:20 AM41 °FPassing clouds.8 mph87%29.92 "HgN/A
6:50 AM43 °FPartly cloudy.10 mph81%29.89 "HgN/A
6:20 AM45 °FPartly cloudy.10 mph81%29.89 "HgN/A
Weather by CustomWeather, © 2014

See weather overviewHow to use our weather pages